User: anonymous   Login
Location: ???????
(54.9996°N, 37.9529°E)
Time: 18:13:28
(UTC+00:00)
Language:

Sich 1 - Orbit

View from above orbital plane
View from above orbital plane
View from above satellite
View from above satellite

Ground track
Ground track

The orbit data is extracted from the following two-line orbital elements,

1 23657U 95046A   24171.55251997  .00001814  00000-0  18521-3 0  9999
2 23657  82.5258  13.2344 0018971 236.5525 123.3880 14.89981277557745
Epoch (UTC): 19 June 2024 13:15:37
Eccentricity: 0.0018971
inclination: 82.5258°
perigee height: 585 km
apogee height: 611 km
right ascension of ascending node: 13.2344°
argument of perigee: 236.5525°
revolutions per day: 14.89981277
mean anomaly at epoch: 123.3880°
orbit number at epoch: 55774

The dashed part of the orbit path shows where the satellite is in the earth's shadow,  

DLR